Simultaneous Nadir Overpasses (SNOs) Predictions

Prediction of SNOs near equator between AQUA and NPP Satellite Orbit:

Table of predicted SNOs near equator for the next 14.0 days since TLE Epoch: 12/1/2011
Index Date (AQUA) Time (AQUA) AQUA Lat,Lon Date (NPP) Time (NPP) NPP Lat,Lon Distance(km) Time Diff (sec)
1 12/02/2011 07:51:51 3.58, 85.26 12/02/2011 07:42:32 3.57, 85.11 16.13 559
2 12/02/2011 08:39:58 0.93,-106.12 12/02/2011 08:31:54 1.04,-106.52 46.47 484
3 12/02/2011 09:28:14 -5.43, 62.47 12/02/2011 09:21:25 -5.59, 61.80 76.21 409
4 12/04/2011 23:26:09 -29.97, 27.42 12/04/2011 23:16:09 -30.05, 27.17 26.43 600
5 12/05/2011 00:07:57 2.22,-158.57 12/04/2011 23:59:00 2.16,-158.80 26.16 537
6 12/05/2011 00:56:04 2.30, 10.06 12/05/2011 00:48:23 2.39, 9.55 56.62 461
7 12/05/2011 01:44:19 -6.86, 178.66 12/05/2011 01:37:53 -7.00, 177.89 86.08 386
8 12/07/2011 15:35:47 -5.41, 149.01 12/07/2011 15:25:58 -5.38, 148.96 6.89 589
9 12/07/2011 16:24:02 0.85, -42.39 12/07/2011 16:15:28 0.76, -42.71 36.84 514
10 12/07/2011 17:12:09 3.66, 126.24 12/07/2011 17:04:51 3.79, 125.64 67.06 438
11 12/07/2011 18:00:24 -8.22, -65.16 12/07/2011 17:54:21 -8.40, -66.02 96.22 363
12 12/10/2011 07:51:49 -3.92, -94.78 12/10/2011 07:42:24 -3.86, -94.92 17.64 565
13 12/10/2011 08:40:03 -0.63, 73.82 12/10/2011 08:31:55 -0.70, 73.40 47.79 489
14 12/10/2011 09:28:10 5.15,-117.55 12/10/2011 09:21:16 5.30,-118.24 77.73 414
15 12/12/2011 23:26:05 29.94,-152.55 12/12/2011 23:16:05 30.19,-152.88 41.67 600
16 12/13/2011 00:07:49 -2.43, 21.44 12/12/2011 23:58:49 -2.35, 21.19 28.87 540
17 12/13/2011 00:56:04 -2.12,-169.97 12/13/2011 00:48:20 -2.21,-170.49 59.02 464
18 12/13/2011 01:44:11 6.64, -1.34 12/13/2011 01:37:42 6.82, -2.12 88.71 389




NCC Satellite Simultaneous Nadir Overpasses (SNOs) Prediction Service
